Wind_Speed
13 13 13 13 14 14 12 11 10 10 10 11 12 13 14 15 16 17 17 18 18 18 17 17 17 16 15 13 12 14 17 18 19 20 20 21 22 24 25 27 29 32 29 23 20 21 23 26 30 32 31 29 29 28 28 28 26 27 27 27 27 28 29 30 31 31 31 30 30 29 29 29 29 30 29 29 30 32 33 35 36 37 38 39 38
13 12 12 12 13 14 13 12 10 10 10 11 12 14 15 15 16 16 17 17 17 18 18 18 17 17 16 13 12 15 18 19 20 20 21 21 22 24 25 28 32 35 32 25 21 22 24 26 31 32 30 29 28 27 27 27 26 26 26 26 26 26 27 28 30 30 30 30 30 29 28 28 29 29 29 29 29 30 31 32 34 35 36 37 38
12 12 11 11 12 13 13 12 12 11 12 12 13 14 15 16 16 16 16 16 16 16 18 19 18 17 16 14 14 16 18 19 20 21 21 22 23 24 27 30 34 36 34 27 23 25 26 27 31 32 31 29 28 26 25 25 25 26 26 26 26 25 26 27 27 29 30 30 29 28 28 27 28 28 28 29 29 30 31 31 32 33 34 35 36
12 12 12 11 11 11 12 13 13 13 13 13 13 14 14 15 15 16 15 15 15 16 17 18 17 17 16 16 15 16 18 18 20 21 21 22 24 25 27 31 34 35 34 29 26 26 27 28 30 31 30 30 29 26 23 22 23 24 26 26 25 25 25 25 25 28 30 29 27 28 27 27 27 27 28 29 30 29 29 30 31 32 35 35 34
12 13 13 12 11 10 11 12 13 14 13 13 13 13 14 14 15 16 16 15 15 15 16 16 16 17 16 17 17 16 16 17 19 21 20 21 24 26 27 30 34 34 33 30 26 26 27 29 29 29 29 30 30 26 23 23 22 22 24 24 24 24 24 24 24 26 28 27 26 27 27 27 27 27 27 28 29 27 26 28 29 30 33 33 33
12 13 14 13 12 11 11 11 12 13 13 13 14 15 15 16 16 16 17 17 16 15 15 15 15 16 16 17 16 16 15 16 19 21 20 21 23 25 27 30 33 34 32 30 27 26 28 31 30 29 30 31 31 27 24 22 21 21 22 21 22 22 22 23 23 25 26 27 26 25 26 27 26 27 27 27 27 25 23 26 27 27 29 30 30
11 13 14 14 14 13 12 11 12 13 13 14 15 16 17 18 18 18 18 18 17 16 15 15 14 14 15 16 15 14 14 16 19 21 21 22 23 24 26 29 32 33 32 30 29 27 29 32 31 30 30 31 30 27 24 19 18 20 20 20 20 21 21 21 23 24 26 26 25 25 26 26 27 27 27 26 26 23 21 25 25 23 25 28 29
10 12 13 13 14 13 12 12 12 14 15 15 16 16 17 18 19 20 20 19 19 17 15 15 14 12 12 14 14 14 14 15 18 20 22 22 23 23 24 28 30 31 31 30 30 29 30 32 32 32 31 30 27 27 25 18 17 19 19 19 19 20 20 21 21 22 24 25 25 25 25 26 27 27 26 26 26 24 23 26 25 21 22 25 27
10 10 11 12 13 13 12 12 13 14 15 16 17 17 18 19 19 20 21 21 21 20 18 16 15 12 9 10 13 13 13 14 16 19 21 22 23 23 24 26 29 30 31 32 32 31 31 33 34 33 31 29 26 26 24 18 16 18 18 18 18 19 19 19 20 20 23 24 24 24 24 25 26 27 27 26 27 26 25 27 24 19 18 20 22
11 11 11 11 12 12 13 13 13 14 15 16 17 18 18 19 19 20 21 22 23 23 21 19 17 14 10 9 12 14 14 14 15 18 20 23 24 24 23 25 28 30 32 33 33 33 33 34 35 34 29 26 26 25 22 17 16 18 17 16 16 16 17 17 18 19 21 21 22 23 23 25 26 26 27 27 27 25 23 26 24 18 15 16 18
12 12 12 12 12 13 13 13 14 14 15 15 17 18 18 19 19 20 20 20 22 24 24 22 20 15 12 10 10 13 15 14 16 18 20 23 25 25 23 24 28 30 33 35 36 35 35 35 35 35 30 25 25 24 21 16 16 19 18 16 14 13 14 14 14 15 17 18 20 21 22 24 25 26 27 27 26 23 21 23 23 20 16 16 18
13 13 12 13 14 14 14 14 14 15 16 16 17 19 19 20 20 20 20 20 21 23 25 25 22 16 13 12 10 11 15 15 15 18 20 22 24 25 24 24 27 30 32 36 38 37 36 36 35 36 33 27 25 25 21 15 16 20 18 16 14 11 10 10 10 12 15 17 19 21 22 23 24 26 26 26 25 22 22 22 19 19 18 17 19
13 13 13 13 13 14 14 14 14 15 16 17 17 18 19 20 21 21 21 21 22 24 26 27 27 22 17 15 10 8 13 15 14 17 20 21 23 25 24 24 27 30 32 35 38 39 38 37 35 34 34 31 28 27 22 17 17 20 18 15 12 10 8 8 8 10 12 15 18 19 20 21 23 24 24 25 25 22 23 24 19 16 18 18 19
12 13 14 13 13 13 14 15 15 15 15 16 16 17 18 20 21 22 21 21 22 24 27 28 29 28 24 22 16 8 11 15 15 18 21 21 21 23 24 23 26 30 32 34 37 38 39 39 36 33 33 33 31 29 25 20 19 20 18 14 11 9 7 7 7 8 10 12 15 16 17 18 20 23 23 24 25 23 24 25 21 17 17 18 20
12 13 14 13 12 13 14 14 15 16 16 17 17 17 18 19 21 22 21 21 21 22 25 27 28 28 27 25 21 17 18 19 17 17 21 22 19 21 24 24 25 28 31 34 36 38 39 39 37 32 31 32 32 30 28 23 20 18 15 12 11 9 7 6 6 6 8 10 12 13 15 16 18 21 21 22 24 24 23 23 22 19 18 18 20
11 13 14 13 13 13 13 13 14 15 16 17 18 18 18 18 19 20 21 21 22 21 22 24 25 28 28 23 18 17 18 23 24 21 20 22 20 19 23 26 26 28 30 33 35 37 38 39 39 34 30 31 32 32 31 26 22 18 14 12 11 9 8 6 4 4 6 9 10 13 15 16 18 20 20 21 23 23 21 20 21 20 18 17 19
11 13 14 14 13 13 13 13 13 14 15 16 17 18 17 17 18 18 19 21 21 21 21 21 22 24 25 21 15 12 15 23 25 22 22 23 22 20 21 24 27 28 30 32 34 36 37 39 40 35 31 30 31 33 32 29 25 20 17 14 10 8 8 5 3 2 4 7 10 13 15 16 18 19 20 21 21 21 20 19 20 19 19 19 20
11 13 14 14 13 13 13 12 12 12 14 15 16 17 17 17 18 17 18 19 19 20 20 20 20 20 21 20 17 14 18 21 19 20 25 25 24 22 21 23 25 27 29 30 32 35 36 39 41 38 32 29 31 34 33 32 29 23 21 16 10 7 8 6 4 2 3 7 10 11 14 16 17 17 18 19 19 20 20 18 18 18 19 20 20
12 14 15 14 14 14 13 12 12 12 13 15 15 15 16 18 17 16 17 17 18 19 20 20 20 19 19 19 20 18 17 16 15 18 23 25 26 25 23 23 24 25 28 28 30 34 36 38 41 40 35 30 31 34 33 32 31 27 24 19 13 9 8 6 5 3 2 6 9 10 13 16 17 16 16 18 18 19 19 18 17 18 19 20 21
12 14 15 15 15 14 12 11 11 12 13 14 15 14 15 17 16 15 16 17 17 18 19 21 22 22 21 20 22 21 16 12 13 15 18 22 27 29 27 25 23 23 26 27 28 32 36 38 40 42 38 31 29 32 33 31 28 27 27 26 22 17 13 9 6 4 3 3 6 9 12 14 16 15 14 16 17 16 17 17 16 18 20 20 22
13 14 14 15 16 13 11 10 11 12 13 14 15 15 16 17 16 15 16 16 16 17 18 20 23 23 24 24 24 23 19 15 13 16 16 16 22 29 30 28 25 25 25 26 27 30 34 37 39 42 41 34 28 29 33 32 28 24 25 27 26 24 22 18 12 7 5 4 5 7 10 12 13 12 11 14 15 15 16 16 17 19 20 21 22
13 13 14 15 14 11 9 9 10 12 13 14 15 17 17 16 16 16 16 15 15 16 17 19 21 22 23 25 26 25 24 21 18 19 19 17 20 27 28 27 27 26 25 25 26 28 31 35 37 40 42 36 28 27 30 33 30 24 22 23 24 24 25 24 21 13 6 5 6 7 9 11 12 10 9 12 14 15 15 16 18 19 20 21 22
12 12 13 14 12 9 8 9 11 13 14 14 15 17 17 16 16 16 15 15 15 15 16 18 20 20 21 24 25 25 25 23 20 18 20 20 22 26 26 25 24 23 23 23 25 26 29 33 36 38 41 39 30 25 26 31 31 26 23 23 22 23 23 24 27 21 7 5 6 7 9 11 11 10 9 10 12 12 12 14 17 19 19 20 22
11 11 11 10 9 8 9 10 11 13 15 15 16 17 17 16 15 15 14 14 14 14 16 19 20 20 21 23 24 25 24 21 18 16 17 18 20 23 25 24 23 22 21 22 24 25 26 30 34 36 39 40 32 25 23 25 30 30 27 25 23 23 23 22 28 28 11 6 8 7 9 11 11 12 11 11 10 10 10 12 15 19 21 23 24
8 7 7 8 8 8 10 12 13 14 15 15 15 17 18 16 15 15 15 14 14 14 16 19 20 20 21 22 23 24 25 21 16 14 15 17 18 22 24 24 23 21 20 22 25 26 26 27 30 34 37 39 35 27 23 23 27 30 28 26 26 26 25 24 29 32 20 10 12 9 9 11 12 13 13 12 13 13 14 15 16 18 22 24 23
5 6 7 8 9 11 12 13 14 14 15 15 16 17 17 15 15 15 15 14 13 14 16 18 19 19 20 21 22 24 24 21 17 13 14 17 18 21 24 25 24 22 20 20 24 26 26 25 27 32 35 37 35 29 24 23 26 28 27 26 27 28 28 28 29 31 28 22 15 12 12 12 13 14 14 14 16 17 17 18 19 21 24 26 26
6 7 7 9 11 12 14 15 15 15 15 16 18 18 16 14 15 16 14 13 12 13 16 17 19 20 20 19 20 23 24 21 17 14 13 16 17 17 20 22 23 24 22 22 24 24 24 23 24 29 33 35 35 30 24 23 23 24 25 26 26 27 28 29 29 28 29 30 25 20 20 20 18 17 17 17 19 20 21 22 23 26 29 30 28
6 8 9 10 12 14 15 16 17 17 17 18 18 16 14 13 14 15 13 12 12 13 15 18 20 21 19 18 19 22 23 20 16 14 13 14 15 15 17 17 18 20 21 21 23 24 24 23 21 26 30 32 33 31 25 23 22 21 23 25 26 27 27 27 28 27 27 30 32 30 30 30 29 25 23 24 25 25 24 25 27 30 34 33 30
8 9 10 11 13 14 16 17 18 19 18 16 14 13 12 13 14 14 12 12 12 14 16 19 21 21 18 17 18 21 22 19 16 15 14 14 14 13 15 15 13 14 16 17 19 22 25 22 19 22 27 29 31 31 27 24 22 20 21 23 25 27 27 27 27 26 26 29 33 34 32 32 29 27 26 25 29 33 30 29 30 30 33 34 31
9 10 12 13 14 15 16 18 19 19 17 14 12 11 12 13 14 13 12 13 13 15 17 19 21 21 19 16 17 20 21 18 16 15 15 14 13 11 12 13 13 14 16 16 16 19 23 21 18 19 22 26 29 29 27 25 21 19 19 21 23 24 26 28 28 26 24 26 32 35 34 31 27 27 27 26 29 34 34 32 30 29 31 33 30
9 11 12 13 14 15 16 17 19 18 15 13 11 11 12 13 14 13 12 13 14 15 17 19 21 22 20 17 16 19 20 18 15 14 15 15 13 12 12 13 16 18 18 18 17 17 20 20 19 17 17 21 25 25 26 25 22 20 19 20 20 20 21 25 27 28 26 24 27 32 32 30 28 28 30 28 28 31 35 34 32 31 32 33 31
9 10 11 12 13 14 15 16 18 17 14 12 11 11 12 14 14 13 12 13 14 15 17 18 20 21 21 19 15 17 19 18 15 14 14 15 15 14 15 16 18 19 19 19 18 17 17 17 18 18 14 16 21 23 24 24 23 22 21 21 19 17 18 21 24 27 28 25 23 26 29 29 27 26 28 30 29 30 33 34 33 32 32 32 30
9 9 10 11 12 14 15 16 18 17 15 13 12 11 12 13 14 13 13 13 14 15 16 18 19 20 22 19 14 14 17 17 15 14 14 15 15 16 17 17 18 18 19 20 19 18 16 14 16 17 13 13 19 23 22 23 24 24 24 23 22 20 18 18 21 24 25 25 23 23 25 27 27 25 26 29 29 28 30 31 31 31 30 29 28
9 9 9 11 12 14 15 17 18 17 15 13 12 12 12 13 13 14 14 14 15 17 17 18 19 19 21 19 13 11 14 16 15 14 13 14 14 15 16 16 17 18 20 20 20 20 17 14 14 15 12 12 17 21 22 22 24 24 24 25 24 23 22 19 19 20 20 21 22 21 21 24 27 26 26 28 28 27 27 28 28 28 26 25 24
7 8 9 11 12 13 15 17 18 17 16 14 13 12 12 13 14 14 15 17 18 18 17 17 18 18 19 18 12 9 12 14 15 15 14 14 14 15 16 17 18 19 20 21 21 21 17 13 13 13 13 12 14 17 19 20 22 23 23 25 24 24 24 22 21 20 18 17 18 19 18 20 23 26 25 26 26 25 25 25 26 24 22 20 19
7 7 9 10 12 13 15 16 17 16 15 15 13 13 12 13 14 15 17 18 17 17 16 17 17 18 19 17 11 9 10 11 13 14 14 14 14 15 16 17 18 19 20 20 22 21 17 11 10 10 12 11 10 13 16 18 19 22 22 23 24 24 24 23 23 22 19 16 16 17 16 15 17 21 21 18 19 20 21 21 21 20 19 17 16
7 7 9 10 11 12 14 15 16 16 15 14 13 13 12 13 14 15 16 16 16 17 17 17 17 17 18 16 11 8 9 9 11 13 13 13 14 15 17 18 19 20 20 21 22 21 17 12 10 10 11 10 8 9 15 17 17 19 20 22 24 24 23 23 24 23 21 18 17 16 17 15 14 17 17 14 14 15 16 17 17 16 16 15 14
8 8 9 10 11 12 13 14 15 15 15 14 13 13 12 12 13 14 14 14 15 17 18 18 17 17 17 15 11 8 8 8 9 11 12 12 13 15 17 19 20 20 21 22 22 20 17 14 14 13 12 10 7 7 12 16 15 16 17 20 25 25 23 24 25 24 22 21 20 18 17 16 14 14 14 13 13 14 14 14 14 14 14 14 14
9 8 9 10 11 11 12 13 13 14 14 14 13 12 12 12 12 12 12 13 15 16 18 18 17 16 16 15 11 8 8 8 8 9 10 11 12 14 16 18 20 21 22 23 22 20 16 13 13 12 11 9 7 7 10 12 13 15 16 20 24 26 25 25 25 24 24 23 23 21 19 18 17 16 15 14 14 14 14 15 15 15 15 15 15
9 9 9 9 10 10 11 11 11 12 13 13 13 12 11 10 10 10 11 13 14 15 16 18 17 15 15 13 11 8 8 8 8 8 10 11 12 14 16 17 19 20 22 23 23 20 15 11 11 12 11 9 9 8 9 11 13 14 15 18 22 23 24 24 24 24 24 24 23 22 22 21 20 19 18 18 18 18 18 18 17 16 16 16 16
9 9 9 9 10 10 10 10 10 11 11 11 12 12 10 9 8 8 10 12 13 14 15 16 16 14 13 12 10 8 8 9 9 8 10 12 12 13 15 16 17 19 21 22 23 21 15 11 11 13 12 12 11 9 9 12 13 13 12 15 19 21 21 23 24 23 23 23 23 23 23 22 22 21 20 21 21 20 19 19 19 18 17 17 17
10 9 10 10 9 9 9 9 10 10 10 10 10 10 9 8 7 7 9 11 12 13 14 15 15 13 11 11 9 7 7 9 9 8 8 10 12 13 15 16 16 17 19 21 23 22 19 14 12 12 12 12 11 9 9 11 11 10 10 13 17 19 19 22 23 22 20 20 22 24 23 21 21 21 21 22 22 20 20 21 21 19 17 17 18
10 10 10 10 9 9 9 9 9 9 9 9 9 9 9 8 6 7 8 10 12 13 14 15 15 13 10 9 9 7 6 7 8 8 7 9 10 12 14 14 14 15 18 21 23 23 20 17 13 12 11 10 9 8 8 9 9 10 11 12 15 17 18 21 22 20 19 19 21 23 23 21 21 24 26 26 25 24 23 23 22 21 21 21 21
11 10 10 10 10 10 10 9 9 9 9 9 8 9 8 7 7 7 8 10 11 12 13 15 15 13 10 9 8 8 6 6 7 7 7 8 10 11 12 12 12 13 16 20 22 22 21 18 15 14 12 10 9 7 7 8 9 9 10 12 14 16 17 19 20 20 20 21 24 27 26 24 26 29 30 29 28 27 26 25 24 24 26 26 25
11 11 10 10 10 10 10 10 10 10 9 9 8 8 8 7 7 7 8 9 11 11 13 14 14 12 10 8 7 7 7 6 6 6 6 7 9 11 11 10 10 12 15 19 21 22 21 17 13 14 13 11 9 7 7 8 9 9 10 12 13 15 17 18 19 20 20 22 26 29 28 26 27 28 28 27 26 26 26 26 26 27 28 27 26
13 12 11 10 9 9 10 10 11 10 9 8 8 8 8 7 6 7 8 9 10 11 12 13 13 11 9 7 6 6 6 6 6 5 6 8 9 10 9 8 10 12 14 17 20 21 21 16 13 13 12 9 8 8 9 9 9 9 11 12 13 15 17 20 20 20 21 23 25 27 26 25 25 26 25 24 24 25 25 24 24 25 25 25 25
14 14 12 11 9 9 10 11 11 11 9 8 8 9 8 7 6 6 7 8 9 11 12 12 12 10 9 7 5 5 6 5 5 6 7 8 9 8 8 9 10 11 12 15 19 21 21 16 12 13 12 10 9 10 11 10 9 10 10 10 12 15 18 20 21 21 21 21 23 26 25 23 23 25 25 23 23 24 25 25 25 25 24 23 23
16 15 13 12 10 9 10 11 11 11 9 8 8 8 8 7 6 6 7 8 9 10 11 11 10 9 8 7 5 4 5 5 5 6 8 8 7 7 7 9 10 11 12 15 18 21 21 16 12 11 11 12 11 11 11 9 8 8 8 9 12 14 17 19 20 20 21 21 22 25 25 22 22 24 24 23 25 25 24 24 24 24 24 24 24
16 16 14 12 11 9 10 11 11 10 9 9 8 7 7 7 6 6 6 7 8 9 10 9 9 8 8 7 4 4 4 4 4 6 7 7 6 6 7 9 9 10 12 14 16 19 20 16 11 9 9 10 11 10 10 10 9 7 6 9 11 12 15 17 17 18 20 20 21 22 22 20 19 20 21 22 24 26 26 25 24 25 25 25 24
14 15 15 14 12 11 10 11 11 10 10 9 8 7 6 6 6 6 6 6 6 7 8 7 7 7 7 6 4 3 3 3 3 4 5 5 5 5 7 8 9 10 12 13 14 17 18 14 10 9 9 8 8 9 10 11 10 7 5 8 9 9 13 16 17 17 19 20 20 20 20 18 16 17 20 20 22 23 23 23 23 24 25 24 22
14 15 15 15 14 12 11 12 12 10 10 10 8 7 6 6 6 6 6 6 5 5 5 6 6 6 6 6 5 3 2 2 2 3 3 3 4 4 5 7 8 10 12 13 12 15 16 13 10 9 9 9 9 10 10 10 10 9 6 6 7 7 11 15 16 16 17 17 17 18 18 16 15 16 18 19 20 19 18 18 18 19 20 19 18
Wind_Direction
16 17 19 22 24 23 22 21 21 21 19 16 12 9 6 3 0 357 354 354 355 358 0 359 357 354 353 357 360 359 359 1 1 0 357 353 349 348 349 349 349 350 348 343 335 331 331 333 332 328 324 319 312 303 296 293 288 282 278 274 270 265 260 254 251 250 248 247 248 247 245 244 244 242 240 240 239 238 238 239 237 235 233 234 236
17 16 18 23 24 22 20 18 14 13 12 10 5 358 355 353 352 352 349 348 349 350 352 354 356 355 355 355 352 354 357 358 359 358 357 354 349 348 350 351 352 352 350 345 335 329 330 333 332 330 326 322 317 309 302 296 291 284 279 276 271 266 262 256 250 248 246 245 245 245 243 242 242 241 239 238 238 237 236 235 235 234 232 232 233
20 17 16 18 20 20 18 15 11 8 4 1 357 353 354 355 354 354 350 348 348 348 347 349 352 353 354 352 345 346 350 353 356 357 358 356 352 351 352 354 354 353 352 348 340 335 335 333 332 333 330 326 322 314 308 302 294 287 281 278 273 266 261 256 250 247 245 243 241 241 240 240 241 240 238 237 236 236 235 235 233 229 226 229 231
24 18 15 12 12 14 14 13 12 9 5 1 357 356 358 360 0 359 355 349 346 346 347 346 349 350 350 349 344 342 345 349 353 354 355 355 354 354 354 357 357 355 354 352 346 340 339 338 335 334 331 329 326 317 311 306 299 291 284 278 273 267 261 255 250 246 243 240 238 239 239 239 239 239 237 235 236 237 238 239 234 225 223 226 227
27 22 18 15 13 14 13 14 13 10 7 3 358 355 353 353 355 357 356 353 347 346 349 349 348 349 349 348 346 346 349 350 351 352 352 352 353 356 358 360 360 358 356 355 351 346 346 345 341 337 334 333 332 327 318 311 305 297 290 280 272 269 265 257 249 244 242 239 236 236 237 236 235 236 234 234 236 237 238 238 233 223 222 225 221
29 25 22 22 22 22 20 17 14 11 7 3 1 1 358 356 355 355 356 356 354 351 354 355 351 349 347 348 349 350 353 353 351 352 352 351 352 356 2 3 1 359 358 358 356 355 355 353 348 342 338 335 335 332 321 311 307 303 297 287 275 270 268 262 251 245 241 238 236 234 235 233 231 232 231 232 234 232 235 236 228 217 216 220 218
28 27 24 23 24 25 24 22 18 14 10 7 5 6 7 7 6 3 360 357 356 355 357 0 357 350 346 350 354 352 352 351 350 352 352 354 355 358 4 5 1 359 0 1 360 0 1 359 354 346 340 338 336 333 325 313 309 307 301 292 280 272 268 264 255 246 239 235 234 233 232 230 227 229 228 230 231 227 229 229 218 207 207 213 214
25 26 25 23 21 23 24 24 21 17 15 12 9 9 9 10 11 10 7 4 360 357 358 2 1 356 352 356 359 354 349 347 346 350 354 358 0 2 5 5 1 0 3 5 4 2 2 2 359 351 346 344 338 334 334 325 313 311 306 297 286 276 269 263 256 246 237 233 231 231 229 226 226 228 226 227 227 221 219 216 209 201 200 205 208
20 22 24 21 18 18 18 19 18 16 14 12 10 10 8 6 7 9 10 7 5 1 359 1 2 1 4 11 13 5 354 351 349 351 358 3 5 6 6 4 2 3 7 9 7 5 3 2 2 358 352 349 344 337 340 339 322 317 313 302 290 283 273 260 251 241 233 231 231 230 227 227 227 226 224 222 221 218 215 212 209 205 199 201 204
17 17 19 19 15 12 12 11 10 10 8 7 7 6 6 5 3 6 9 7 6 6 3 359 358 360 5 16 23 20 10 3 0 359 3 7 8 9 7 5 5 7 11 12 10 7 4 2 3 3 358 354 354 346 346 348 333 324 320 310 299 288 280 263 247 235 230 230 231 228 226 227 226 224 223 219 217 216 213 211 211 210 207 205 204
14 15 14 13 11 7 6 6 5 4 2 1 3 4 5 5 4 4 7 7 5 6 6 0 356 358 6 9 18 27 25 17 8 6 6 6 8 9 8 7 7 10 13 13 12 10 7 4 4 8 6 360 359 355 353 357 348 338 327 318 311 296 288 276 253 236 233 233 230 227 224 224 224 222 221 218 215 213 209 209 207 203 205 209 210
7 10 9 8 7 4 2 2 0 360 0 2 6 8 5 5 5 3 3 5 5 6 6 3 357 357 6 10 13 22 27 26 14 10 8 5 6 8 8 8 9 12 14 14 13 12 10 7 6 11 13 6 359 358 357 355 351 348 340 328 322 308 296 284 261 244 238 235 229 226 224 223 222 219 218 217 213 208 204 202 198 195 198 205 212
357 0 1 1 1 360 359 0 360 358 0 4 7 8 6 4 5 5 2 2 3 4 4 4 4 3 0 1 11 22 21 24 17 11 12 8 3 5 8 8 10 14 15 15 14 13 12 10 9 12 16 15 7 360 356 352 352 355 352 343 333 322 307 288 271 257 243 235 228 226 225 225 222 219 217 214 210 208 204 201 200 198 197 201 212
350 351 353 354 354 353 353 356 360 360 1 3 4 5 5 4 3 3 5 4 4 3 1 4 8 8 2 358 4 5 1 12 16 12 15 13 4 4 9 9 9 14 16 16 14 13 13 12 12 12 14 19 15 5 359 357 358 358 355 351 345 336 324 300 278 264 250 238 230 228 226 224 223 220 216 210 208 208 206 205 208 206 201 202 211
344 345 347 350 350 349 348 350 355 358 359 1 1 2 3 4 2 359 1 4 7 7 3 3 5 7 8 5 3 355 349 357 5 8 13 13 9 7 8 9 9 10 15 17 14 12 14 13 13 13 13 17 17 13 7 1 359 358 354 353 351 345 338 313 280 256 247 237 230 228 223 220 216 216 215 208 206 207 206 206 209 209 208 205 208
339 341 343 347 348 346 344 344 349 353 355 356 357 359 1 1 1 358 356 360 5 9 7 4 4 6 8 6 1 357 350 346 344 349 3 10 13 11 7 6 7 8 13 18 16 12 14 15 15 14 14 15 16 16 15 10 2 359 357 352 350 355 355 334 303 264 245 229 220 217 217 215 208 208 211 207 206 208 208 209 211 212 213 211 209
335 339 341 343 345 343 340 340 343 347 350 352 351 354 357 357 358 356 353 355 1 5 7 6 7 8 8 5 0 352 341 340 339 339 352 2 8 10 5 3 4 7 11 15 16 14 13 16 17 15 15 15 16 17 18 21 17 12 9 2 356 6 6 349 337 300 252 228 216 210 208 209 208 207 208 208 208 208 208 210 212 213 215 215 210
329 337 339 341 342 341 338 337 340 343 346 348 348 349 352 353 353 351 349 351 355 359 2 5 9 10 9 6 360 344 332 338 340 335 341 353 2 4 3 1 0 4 10 12 14 15 14 17 18 17 16 14 17 17 18 26 31 27 23 15 5 13 15 359 351 340 241 228 220 211 203 203 205 204 205 208 208 206 208 212 212 214 217 219 214
323 331 336 338 339 339 337 337 340 342 344 347 347 346 348 349 348 345 346 348 350 354 358 1 5 9 9 4 357 350 337 336 340 336 335 343 355 1 1 1 1 3 8 10 12 14 15 18 18 17 17 15 18 20 19 26 34 34 33 30 22 21 20 8 355 352 259 230 217 205 199 199 198 195 198 207 208 206 209 211 214 216 218 219 214
318 325 330 333 334 335 335 335 337 339 341 346 348 345 344 346 344 340 343 347 346 350 356 358 0 2 3 1 356 354 349 341 341 341 335 335 346 356 358 359 2 5 7 9 11 14 14 16 17 17 18 17 18 21 20 23 30 34 36 36 35 34 32 20 358 334 310 258 217 200 195 196 196 194 196 201 205 208 209 212 217 219 218 215 207
313 318 322 325 327 328 329 330 331 333 337 343 347 347 344 342 341 339 342 347 346 346 352 357 358 358 358 359 357 355 357 354 346 345 344 336 338 347 352 354 358 4 7 9 11 14 14 14 16 17 18 18 19 20 19 22 26 30 34 37 38 39 38 32 17 339 301 261 225 204 189 189 193 197 198 197 204 213 212 215 219 217 217 212 202
307 310 313 316 318 320 320 324 326 328 333 339 342 345 345 340 337 339 341 346 347 346 350 355 358 359 358 358 358 357 358 354 348 347 348 343 337 342 349 351 353 358 4 10 12 14 15 13 14 17 18 18 20 20 19 21 26 30 31 35 36 36 37 34 25 5 310 247 221 207 188 187 194 199 198 200 208 214 214 216 213 207 208 202 190
306 304 307 310 313 315 315 319 323 326 332 336 338 342 344 340 336 338 340 345 348 347 348 354 359 1 1 0 360 0 359 351 345 344 345 344 338 338 347 352 353 357 2 9 13 15 16 13 12 16 17 18 21 24 21 19 25 34 36 35 34 32 33 31 25 17 347 223 199 202 191 182 184 185 187 198 207 214 218 215 203 193 190 180 166
306 305 306 307 310 313 317 322 323 326 331 333 336 341 343 341 340 340 342 345 348 348 348 354 0 3 2 1 359 359 359 352 343 339 341 340 335 335 343 350 354 0 4 7 12 17 19 14 11 14 15 17 21 27 27 21 24 36 42 40 36 31 32 31 26 24 23 165 155 162 180 174 168 168 173 184 188 187 186 184 185 180 167 154 147
309 309 307 305 310 316 323 329 330 329 331 331 334 339 340 341 343 343 342 343 346 348 350 355 0 2 360 358 358 358 359 356 348 340 338 337 336 339 344 349 353 1 9 10 10 17 22 16 10 12 14 16 21 27 32 28 27 34 42 45 43 39 37 37 34 32 44 113 139 139 155 160 156 154 160 165 161 155 154 155 164 165 151 142 142
316 315 312 311 316 323 328 332 334 331 328 327 330 334 337 339 343 343 341 342 344 345 349 354 358 359 357 356 356 357 359 359 356 347 340 340 341 343 346 348 353 2 11 13 12 15 19 16 10 11 13 14 20 26 31 33 31 32 39 45 46 44 43 45 43 42 54 79 107 134 148 147 141 142 146 148 148 147 145 144 149 149 142 139 141
316 318 317 318 322 328 332 334 335 330 325 324 325 329 334 337 341 343 341 341 341 341 347 352 354 355 356 355 355 358 0 1 1 356 345 341 341 343 348 350 352 359 5 11 14 13 13 14 10 10 12 12 18 26 30 34 32 30 35 41 44 45 45 48 49 47 55 66 77 99 118 121 120 125 132 138 144 144 140 140 144 145 142 137 133
315 321 320 321 325 330 333 333 333 330 325 324 324 327 332 336 341 343 340 338 338 339 345 349 352 355 357 356 355 359 2 3 2 0 350 342 342 344 351 355 352 354 358 4 10 9 8 10 9 10 11 10 16 24 29 33 32 27 31 36 39 44 47 51 53 51 52 62 74 84 92 97 102 108 119 132 138 136 132 133 136 138 136 132 128
314 319 321 323 326 328 329 329 330 331 331 330 329 330 331 335 342 345 340 338 337 338 342 346 351 358 0 358 357 360 3 5 5 3 355 347 347 348 350 354 355 355 354 357 3 3 4 8 8 8 9 9 13 21 27 33 32 27 29 32 34 40 48 54 58 56 49 55 70 82 86 89 91 95 99 107 118 122 121 121 123 125 125 123 123
316 319 322 323 325 326 327 327 330 335 339 342 340 334 331 335 343 347 341 338 337 336 338 343 349 357 1 360 358 360 4 8 8 5 360 352 349 351 353 355 0 4 359 356 359 359 1 9 12 6 7 10 13 18 27 33 32 29 31 32 30 34 46 55 58 59 52 45 53 67 80 87 88 90 89 86 95 107 111 110 110 111 110 109 111
321 324 325 325 326 328 328 329 334 340 345 347 344 336 332 334 342 346 341 339 337 334 338 342 345 352 358 360 359 1 5 10 12 7 2 359 354 354 3 7 5 3 359 355 356 358 0 7 12 8 7 11 13 19 28 33 34 34 35 36 33 31 41 52 56 57 55 46 41 49 62 75 81 84 87 87 88 95 99 101 101 101 101 101 103
323 327 330 332 334 334 334 336 341 345 347 346 343 336 333 335 339 344 343 340 338 335 338 341 342 345 352 358 1 3 6 12 16 13 7 6 3 1 8 11 2 356 356 355 352 354 358 1 4 7 8 10 15 21 29 35 38 41 43 41 40 37 39 49 55 56 56 52 46 45 51 63 74 78 82 88 91 92 95 98 99 100 101 102 103
322 328 333 337 341 340 340 343 346 348 347 346 343 336 334 336 339 343 345 343 340 338 338 338 339 342 348 357 5 9 10 14 18 17 13 10 7 2 4 4 357 353 357 359 355 353 354 354 0 6 6 12 20 22 26 33 38 43 48 47 46 47 48 50 54 55 56 57 54 50 52 63 73 77 81 86 88 90 93 96 99 101 102 103 104
318 327 333 337 342 343 343 346 348 348 346 345 343 338 337 338 340 343 345 344 340 338 337 337 339 343 350 359 11 17 16 19 22 22 19 16 12 9 8 6 3 2 1 0 360 358 357 355 359 6 7 15 24 23 25 31 35 38 44 47 47 51 54 56 58 57 55 57 60 57 61 74 81 84 86 89 92 96 97 98 99 101 100 100 102
316 325 331 335 341 343 343 345 347 346 345 345 343 340 339 339 340 343 344 343 341 340 341 344 346 351 357 4 16 28 23 21 25 29 29 28 25 22 21 16 12 9 5 2 1 3 5 2 4 13 14 13 20 23 28 34 34 37 42 44 46 50 54 56 59 60 56 55 59 62 73 86 88 88 91 91 93 97 96 94 94 95 96 96 95
314 322 329 335 338 340 340 342 344 345 345 345 343 340 338 339 339 341 343 344 346 350 352 354 355 358 2 8 21 33 27 21 23 28 29 30 29 27 26 23 18 13 9 8 6 8 14 13 14 21 17 16 19 21 31 37 36 40 43 44 44 48 53 57 58 60 60 59 61 66 81 94 88 86 91 87 84 86 87 89 91 93 95 95 91
312 316 323 330 334 335 336 338 340 343 344 345 343 341 339 338 338 341 346 350 355 359 360 359 359 1 3 11 24 31 27 22 19 22 24 26 27 27 27 26 22 16 12 11 12 16 22 23 22 20 20 29 30 21 31 38 39 42 45 45 46 48 55 61 62 64 67 69 72 74 83 93 89 88 93 91 83 82 83 86 88 90 92 90 88
310 313 318 323 328 331 333 335 338 341 343 344 343 342 340 338 339 341 346 353 358 1 3 1 360 1 5 14 26 30 27 23 17 17 18 20 23 22 24 26 23 17 14 14 14 19 26 29 28 27 26 32 37 32 34 35 41 48 48 49 51 52 58 63 64 65 67 70 74 77 81 86 86 88 91 89 86 85 83 83 84 86 88 87 86
308 312 315 319 322 327 329 332 337 339 340 341 342 342 343 339 337 340 344 351 356 359 2 1 359 360 4 13 27 32 29 22 16 15 9 11 16 16 19 24 23 17 15 15 16 21 29 32 32 33 31 30 40 51 37 32 47 54 48 51 56 54 57 62 64 65 67 68 71 75 79 83 86 89 90 89 88 89 87 87 88 88 88 89 89
308 310 312 317 319 321 324 327 333 338 337 339 340 341 343 341 335 335 340 348 354 357 359 358 357 357 360 9 24 31 27 18 13 12 7 5 10 11 15 21 19 16 15 14 16 23 32 37 37 40 45 49 55 57 41 36 53 56 46 50 59 59 57 59 64 67 68 71 74 75 78 82 85 88 90 89 86 86 87 87 87 88 87 88 89
308 308 309 312 313 314 317 320 327 333 334 336 340 339 342 344 334 329 336 344 351 355 356 354 354 354 356 3 15 23 19 11 7 9 8 6 5 6 13 19 17 16 16 14 17 24 31 40 45 43 46 51 51 49 44 43 51 56 53 53 62 66 64 62 66 70 72 75 78 78 77 80 84 86 86 83 79 77 81 82 81 81 82 82 85
306 307 305 305 306 306 309 313 318 326 330 333 337 337 339 344 337 330 337 345 349 351 352 352 352 352 354 357 3 6 360 355 356 1 5 4 359 0 11 18 17 16 18 16 18 23 27 34 45 46 43 47 47 44 50 54 53 57 63 65 68 71 71 71 71 72 73 77 81 82 80 80 82 82 79 76 74 72 75 77 77 79 81 84 88
302 302 300 299 300 300 301 304 308 316 322 327 332 334 336 341 338 336 342 346 348 349 347 349 351 351 351 352 356 358 347 336 342 352 358 357 353 359 13 20 18 18 21 20 20 23 25 28 41 48 44 48 57 56 58 64 65 64 69 75 74 72 75 81 82 76 72 75 82 85 83 80 79 78 76 73 71 71 74 76 78 81 84 89 93
297 298 298 296 297 296 294 296 300 307 315 322 327 330 333 336 334 337 343 345 348 348 344 346 349 349 348 346 348 357 355 339 337 345 352 353 356 8 20 24 21 22 24 23 22 24 23 26 40 48 45 53 69 72 70 72 71 71 79 82 75 68 73 82 87 86 82 82 86 87 85 82 79 77 76 73 71 73 76 76 79 85 88 90 93
291 291 293 295 296 295 294 292 295 303 310 316 322 326 329 330 328 332 339 342 346 347 342 343 346 346 345 342 341 352 360 350 343 346 354 2 11 20 25 25 24 27 27 25 25 25 23 26 42 52 53 62 72 76 82 81 73 73 89 93 78 67 74 84 89 95 94 90 89 89 86 85 84 82 79 77 76 79 81 80 82 88 90 90 92
289 287 289 293 295 294 293 291 293 299 306 312 317 322 324 326 325 329 334 338 343 343 339 341 343 342 342 341 341 353 4 359 352 354 7 21 25 26 28 26 24 26 27 26 26 26 24 28 46 57 60 64 65 71 81 81 76 77 89 95 83 74 83 91 95 100 101 96 94 93 89 87 88 86 84 83 82 84 86 86 86 88 91 92 93
289 285 285 287 288 287 288 289 289 294 301 308 312 315 319 324 325 326 330 335 338 338 338 341 341 338 340 342 346 2 10 5 1 9 24 31 30 28 29 23 20 22 23 24 26 26 24 32 52 62 62 62 65 74 77 75 77 80 83 90 87 82 89 97 99 100 100 98 97 96 93 91 91 90 86 85 87 89 91 92 90 88 90 94 95
290 286 283 281 280 280 281 283 284 287 294 299 302 307 313 320 324 324 325 331 334 333 336 340 340 336 336 339 348 10 15 9 9 19 30 35 33 31 25 18 17 20 20 22 26 25 23 33 58 68 64 65 70 75 72 68 72 74 81 97 96 89 91 98 100 99 99 99 98 98 97 95 94 93 88 85 87 89 90 92 94 94 93 94 95
289 289 286 279 275 275 276 277 278 281 285 287 292 301 307 313 320 320 319 325 329 330 334 341 340 334 334 336 348 12 14 7 9 19 28 34 34 30 23 18 18 21 22 22 25 24 21 30 55 77 79 74 74 75 70 63 62 63 85 107 105 96 95 97 97 98 100 98 97 97 98 97 95 94 92 88 88 89 89 90 94 97 97 94 90
285 289 288 281 277 275 272 272 273 274 275 278 283 292 298 303 310 314 313 317 325 330 335 341 341 336 335 337 345 8 5 354 3 15 21 26 28 26 24 21 19 23 23 21 22 23 21 27 50 75 84 77 72 79 76 67 64 66 88 113 114 106 101 98 98 102 104 99 95 94 96 99 101 100 98 95 92 93 94 93 94 96 95 90 84
281 285 286 285 283 277 268 268 271 271 270 272 276 281 286 291 297 303 306 310 323 333 339 344 344 342 344 346 352 4 357 331 332 351 3 13 20 20 21 23 24 25 21 17 19 21 20 27 48 71 80 73 67 75 79 74 72 72 78 105 120 121 111 103 100 103 106 104 101 98 97 101 105 106 105 101 96 96 99 98 96 97 94 85 79
Height
1496 1495 1494 1493 1492 1491 1491 1490 1489 1488 1487 1486 1485 1484 1483 1481 1480 1479 1477 1475 1474 1472 1471 1469 1467 1465 1464 1463 1461 1459 1457 1455 1453 1451 1449 1447 1444 1442 1440 1437 1434 1430 1427 1424 1423 1421 1418 1415 1413 1410 1406 1403 1401 1398 1396 1395 1393 1392 1391 1391 1390 1390 1390 1391 1391 1392 1393 1394 1395 1397 1398 1399 1400 1402 1403 1405 1406 1408 1410 1411 1414 1416 1419 1422 1424
1496 1495 1495 1494 1493 1492 1491 1490 1489 1488 1487 1486 1485 1484 1483 1481 1480 1479 1477 1475 1474 1472 1470 1469 1467 1465 1464 1462 1461 1459 1457 1455 1453 1450 1448 1446 1444 1441 1439 1436 1432 1429 1426 1423 1421 1418 1415 1413 1410 1407 1404 1401 1398 1395 1393 1391 1390 1388 1387 1386 1386 1386 1386 1387 1387 1388 1389 1390 1392 1393 1394 1396 1397 1398 1400 1401 1403 1404 1406 1408 1410 1413 1416 1418 1421
1497 1496 1495 1494 1493 1492 1491 1490 1490 1489 1488 1487 1486 1484 1483 1481 1480 1478 1477 1475 1474 1472 1470 1468 1467 1465 1463 1462 1460 1458 1457 1454 1452 1450 1448 1445 1443 1440 1438 1435 1431 1428 1425 1421 1419 1416 1413 1410 1408 1404 1401 1398 1395 1392 1390 1388 1386 1385 1383 1383 1382 1382 1382 1382 1383 1384 1385 1387 1388 1389 1391 1392 1394 1395 1397 1398 1400 1401 1403 1405 1407 1409 1412 1415 1418
1497 1496 1495 1495 1494 1493 1492 1491 1490 1489 1488 1487 1486 1485 1483 1482 1480 1479 1477 1475 1474 1472 1470 1468 1466 1465 1463 1461 1460 1458 1456 1454 1452 1450 1447 1445 1442 1439 1437 1434 1430 1427 1424 1420 1417 1414 1411 1408 1405 1402 1399 1396 1392 1389 1386 1384 1383 1381 1380 1379 1378 1378 1378 1378 1379 1380 1381 1383 1384 1386 1388 1389 1391 1392 1394 1395 1397 1398 1400 1402 1404 1406 1409 1412 1415
1498 1497 1496 1495 1494 1493 1492 1491 1490 1489 1488 1487 1486 1485 1483 1482 1480 1479 1477 1475 1473 1471 1470 1468 1466 1464 1462 1461 1459 1457 1456 1454 1452 1449 1447 1444 1441 1439 1436 1433 1430 1426 1423 1419 1416 1413 1409 1406 1403 1400 1397 1393 1390 1386 1384 1381 1379 1378 1376 1375 1375 1374 1374 1374 1375 1377 1378 1379 1381 1383 1384 1386 1388 1389 1391 1392 1394 1396 1398 1400 1401 1403 1406 1409 1412
1498 1497 1497 1496 1495 1494 1493 1492 1491 1490 1489 1487 1486 1485 1483 1482 1480 1479 1477 1475 1473 1471 1469 1467 1466 1464 1462 1460 1458 1457 1455 1453 1451 1449 1446 1444 1441 1439 1436 1433 1429 1426 1422 1418 1415 1412 1408 1404 1401 1398 1394 1390 1387 1384 1381 1378 1376 1375 1373 1372 1371 1371 1371 1371 1372 1373 1374 1376 1378 1379 1381 1383 1385 1386 1388 1390 1392 1393 1396 1398 1399 1401 1403 1407 1410
1499 1498 1497 1496 1495 1494 1493 1492 1491 1490 1489 1488 1486 1485 1483 1481 1480 1478 1477 1475 1473 1471 1469 1467 1465 1463 1461 1460 1458 1456 1455 1453 1451 1449 1446 1443 1441 1438 1436 1432 1429 1426 1422 1418 1414 1411 1407 1403 1399 1396 1392 1388 1384 1381 1378 1375 1373 1372 1370 1369 1368 1368 1368 1368 1368 1369 1370 1372 1374 1376 1378 1380 1382 1383 1385 1387 1389 1391 1394 1396 1398 1399 1402 1405 1407
1500 1499 1498 1497 1496 1495 1494 1493 1492 1491 1489 1488 1487 1485 1484 1482 1480 1478 1476 1475 1473 1471 1469 1467 1465 1463 1461 1459 1458 1456 1454 1453 1451 1448 1446 1443 1441 1438 1435 1432 1429 1426 1422 1417 1413 1410 1406 1402 1398 1394 1390 1386 1382 1378 1375 1372 1371 1370 1368 1367 1366 1365 1365 1365 1365 1366 1368 1369 1371 1373 1375 1377 1379 1381 1383 1385 1387 1389 1392 1394 1396 1399 1401 1403 1405
1501 1500 1499 1498 1497 1496 1495 1494 1492 1491 1490 1488 1487 1485 1484 1482 1481 1479 1477 1475 1473 1471 1468 1467 1465 1463 1461 1459 1457 1456 1454 1452 1450 1448 1446 1443 1441 1438 1435 1432 1429 1426 1422 1417 1413 1409 1405 1402 1397 1392 1388 1384 1380 1376 1373 1371 1370 1368 1366 1365 1363 1363 1362 1362 1362 1363 1365 1366 1368 1370 1372 1374 1376 1379 1381 1383 1385 1386 1388 1392 1396 1399 1401 1403 1405
1501 1500 1499 1498 1497 1496 1495 1494 1493 1491 1490 1489 1487 1486 1484 1483 1481 1479 1477 1475 1473 1471 1468 1467 1465 1463 1461 1459 1457 1456 1453 1452 1450 1448 1446 1443 1440 1437 1435 1432 1429 1425 1421 1417 1413 1409 1405 1401 1397 1391 1387 1383 1379 1375 1372 1371 1369 1367 1365 1363 1362 1361 1360 1361 1360 1361 1362 1364 1366 1368 1370 1372 1374 1376 1379 1381 1383 1385 1387 1390 1394 1399 1401 1403 1405
1502 1501 1500 1499 1498 1497 1496 1494 1493 1492 1490 1489 1488 1486 1485 1483 1481 1479 1478 1476 1473 1471 1469 1466 1464 1463 1461 1459 1457 1455 1453 1452 1450 1448 1445 1443 1440 1437 1435 1432 1429 1425 1422 1417 1413 1409 1405 1400 1396 1391 1386 1383 1380 1375 1371 1369 1368 1366 1364 1362 1360 1359 1359 1360 1360 1360 1361 1363 1365 1367 1368 1369 1371 1374 1376 1379 1382 1384 1387 1388 1391 1396 1399 1401 1404
1502 1501 1501 1500 1498 1497 1496 1495 1493 1492 1491 1489 1488 1486 1484 1483 1481 1479 1477 1476 1474 1471 1469 1466 1463 1461 1459 1458 1456 1454 1453 1451 1450 1448 1445 1442 1439 1437 1434 1432 1429 1425 1422 1418 1413 1409 1405 1400 1396 1391 1387 1383 1380 1376 1372 1369 1368 1366 1363 1361 1360 1359 1358 1358 1359 1359 1360 1362 1363 1365 1366 1367 1369 1372 1374 1377 1380 1383 1386 1387 1390 1392 1395 1399 1402
1503 1502 1501 1500 1499 1498 1496 1495 1494 1492 1491 1489 1488 1486 1485 1483 1481 1479 1477 1475 1473 1471 1468 1466 1462 1458 1456 1455 1454 1453 1452 1451 1450 1448 1445 1442 1439 1437 1434 1431 1429 1426 1422 1418 1414 1410 1405 1401 1396 1392 1388 1384 1380 1376 1372 1369 1367 1365 1363 1361 1360 1358 1357 1357 1358 1358 1359 1360 1362 1363 1365 1367 1368 1371 1373 1375 1378 1381 1384 1386 1388 1390 1392 1395 1399
1503 1502 1501 1500 1499 1498 1497 1495 1494 1493 1491 1490 1488 1487 1485 1483 1481 1479 1477 1475 1473 1471 1468 1465 1463 1460 1457 1454 1452 1451 1450 1450 1448 1447 1445 1442 1439 1437 1434 1432 1429 1426 1422 1418 1414 1410 1406 1402 1397 1393 1389 1385 1381 1377 1372 1369 1367 1365 1363 1362 1360 1358 1357 1356 1356 1357 1358 1359 1361 1363 1364 1366 1368 1371 1373 1374 1376 1379 1381 1384 1387 1389 1390 1392 1396
1503 1502 1501 1500 1499 1498 1497 1495 1494 1493 1491 1490 1488 1487 1485 1483 1481 1479 1477 1476 1474 1472 1469 1466 1464 1462 1460 1456 1454 1451 1448 1446 1445 1446 1444 1442 1440 1437 1434 1432 1429 1426 1423 1419 1415 1411 1406 1402 1398 1394 1390 1386 1382 1378 1373 1370 1367 1365 1364 1362 1360 1359 1357 1356 1356 1356 1357 1358 1359 1362 1363 1365 1367 1369 1372 1374 1376 1377 1379 1382 1385 1387 1389 1390 1393
1503 1502 1501 1500 1499 1498 1497 1495 1494 1493 1491 1490 1488 1487 1485 1483 1482 1480 1478 1476 1474 1472 1470 1468 1465 1462 1460 1458 1457 1454 1451 1448 1445 1444 1444 1442 1440 1437 1435 1432 1429 1426 1423 1419 1415 1411 1407 1403 1399 1395 1391 1387 1384 1380 1375 1371 1367 1365 1363 1362 1360 1359 1357 1356 1355 1356 1356 1356 1357 1360 1362 1364 1366 1367 1370 1372 1374 1376 1379 1382 1384 1386 1388 1389 1391
1503 1502 1501 1500 1499 1498 1497 1495 1494 1493 1491 1490 1489 1487 1486 1484 1482 1480 1478 1476 1474 1473 1471 1470 1468 1465 1463 1460 1458 1457 1455 1452 1448 1443 1442 1442 1440 1437 1435 1432 1430 1427 1423 1420 1416 1413 1408 1404 1400 1396 1392 1388 1385 1381 1377 1372 1368 1365 1363 1362 1360 1359 1358 1357 1356 1357 1357 1356 1357 1358 1360 1363 1365 1366 1369 1371 1373 1375 1379 1382 1384 1386 1387 1388 1390
1502 1502 1501 1500 1499 1497 1496 1495 1494 1493 1491 1490 1489 1487 1486 1484 1482 1480 1479 1477 1475 1473 1472 1471 1469 1467 1466 1463 1461 1459 1456 1453 1450 1445 1441 1440 1439 1437 1435 1433 1430 1427 1424 1420 1417 1414 1409 1405 1401 1397 1393 1389 1385 1382 1378 1373 1369 1367 1365 1363 1361 1359 1358 1358 1358 1357 1357 1357 1358 1359 1360 1362 1364 1366 1369 1371 1372 1374 1378 1381 1383 1384 1386 1387 1389
1502 1501 1500 1499 1498 1497 1496 1495 1494 1493 1491 1490 1489 1487 1486 1484 1482 1480 1479 1477 1475 1474 1472 1470 1469 1468 1466 1465 1463 1460 1457 1454 1452 1448 1442 1439 1438 1436 1435 1433 1431 1427 1425 1421 1418 1415 1411 1407 1402 1398 1394 1390 1387 1383 1380 1375 1371 1368 1366 1364 1362 1360 1359 1358 1358 1358 1358 1358 1358 1359 1360 1361 1363 1365 1367 1370 1371 1373 1376 1379 1380 1382 1384 1385 1387
1501 1501 1500 1499 1498 1497 1496 1495 1493 1492 1491 1490 1489 1487 1486 1484 1482 1481 1479 1477 1475 1474 1472 1470 1468 1466 1465 1464 1462 1460 1457 1455 1453 1450 1446 1442 1437 1435 1433 1432 1431 1428 1425 1423 1419 1416 1412 1408 1404 1400 1396 1392 1388 1385 1382 1378 1374 1371 1368 1365 1363 1361 1359 1358 1358 1358 1358 1358 1358 1359 1360 1361 1363 1364 1366 1368 1371 1373 1375 1377 1379 1381 1382 1383 1384
1501 1500 1499 1498 1497 1496 1495 1494 1493 1492 1491 1490 1489 1487 1485 1484 1482 1480 1479 1477 1475 1474 1472 1470 1468 1466 1464 1462 1460 1458 1456 1454 1452 1450 1448 1444 1440 1436 1434 1431 1429 1428 1426 1424 1421 1418 1414 1410 1406 1402 1397 1394 1390 1387 1385 1381 1377 1374 1371 1368 1365 1363 1361 1359 1358 1357 1357 1357 1358 1359 1360 1361 1363 1364 1365 1368 1370 1373 1375 1376 1378 1379 1380 1382 1384
1500 1499 1499 1498 1497 1496 1495 1494 1493 1492 1491 1489 1488 1487 1485 1483 1481 1480 1478 1477 1476 1474 1472 1470 1469 1466 1464 1461 1459 1456 1454 1452 1451 1449 1447 1445 1442 1439 1436 1433 1430 1428 1427 1424 1422 1419 1416 1412 1408 1404 1399 1396 1392 1390 1387 1384 1380 1377 1374 1371 1368 1366 1364 1361 1358 1356 1355 1355 1357 1358 1360 1361 1362 1364 1366 1369 1372 1373 1373 1374 1376 1377 1379 1381 1384
1500 1499 1498 1497 1496 1495 1494 1494 1493 1491 1490 1489 1488 1486 1484 1483 1481 1480 1478 1477 1475 1474 1472 1471 1469 1467 1465 1462 1459 1456 1454 1452 1450 1449 1447 1445 1443 1440 1438 1435 1432 1430 1428 1425 1423 1420 1417 1413 1410 1405 1402 1398 1395 1392 1389 1387 1384 1380 1377 1374 1372 1369 1367 1363 1360 1356 1353 1354 1356 1358 1360 1361 1362 1364 1367 1370 1372 1373 1372 1373 1375 1376 1377 1380 1385
1499 1498 1497 1496 1496 1495 1494 1494 1493 1491 1490 1489 1487 1486 1484 1483 1481 1480 1478 1477 1475 1474 1472 1470 1468 1467 1464 1462 1460 1458 1455 1453 1451 1449 1448 1446 1444 1441 1438 1436 1433 1431 1429 1426 1424 1422 1418 1415 1412 1408 1405 1401 1397 1395 1392 1390 1387 1383 1380 1377 1375 1372 1369 1367 1363 1358 1354 1354 1356 1359 1361 1362 1363 1364 1366 1369 1371 1372 1371 1372 1375 1376 1377 1381 1385
1498 1498 1497 1496 1496 1495 1494 1493 1492 1491 1490 1488 1487 1485 1484 1482 1481 1480 1478 1477 1475 1473 1472 1470 1468 1466 1464 1462 1460 1458 1455 1453 1451 1449 1448 1447 1445 1442 1439 1437 1435 1432 1430 1427 1424 1422 1419 1417 1414 1411 1407 1404 1400 1397 1394 1392 1390 1387 1384 1381 1378 1375 1372 1370 1366 1362 1357 1355 1357 1360 1362 1363 1363 1364 1366 1368 1370 1372 1372 1373 1376 1378 1380 1382 1385
1498 1498 1497 1497 1496 1495 1494 1493 1492 1491 1490 1488 1487 1485 1484 1482 1481 1480 1478 1477 1475 1473 1472 1470 1468 1466 1464 1462 1460 1458 1455 1453 1451 1450 1448 1447 1445 1442 1439 1437 1435 1433 1431 1428 1425 1423 1421 1418 1416 1413 1410 1407 1403 1400 1397 1395 1393 1390 1388 1384 1381 1378 1376 1373 1369 1367 1363 1360 1359 1360 1362 1364 1364 1365 1367 1369 1372 1373 1373 1375 1377 1380 1383 1384 1385
1498 1498 1497 1497 1496 1495 1494 1493 1492 1491 1489 1488 1486 1485 1483 1482 1481 1480 1478 1477 1475 1474 1472 1470 1468 1467 1464 1462 1460 1458 1456 1453 1451 1450 1448 1447 1445 1443 1441 1438 1435 1433 1431 1429 1427 1425 1423 1420 1418 1415 1412 1409 1405 1402 1400 1398 1395 1393 1391 1388 1385 1382 1379 1377 1374 1372 1369 1366 1364 1363 1363 1364 1365 1366 1368 1371 1374 1374 1375 1377 1379 1380 1383 1386 1386
1498 1498 1497 1497 1496 1495 1494 1493 1492 1490 1489 1487 1485 1484 1483 1482 1481 1480 1478 1477 1475 1474 1472 1470 1469 1467 1464 1462 1460 1458 1456 1454 1452 1450 1449 1447 1446 1444 1443 1440 1437 1434 1432 1430 1428 1426 1424 1422 1420 1417 1415 1412 1408 1405 1403 1400 1398 1396 1393 1391 1389 1386 1383 1381 1379 1377 1374 1372 1369 1368 1367 1367 1368 1369 1370 1373 1375 1375 1377 1379 1380 1383 1384 1386 1388
1499 1498 1497 1497 1496 1495 1494 1493 1491 1489 1488 1486 1484 1483 1482 1482 1481 1479 1478 1477 1476 1474 1472 1471 1469 1467 1465 1463 1461 1459 1456 1454 1453 1451 1450 1448 1447 1445 1443 1441 1439 1437 1434 1432 1430 1428 1426 1424 1422 1420 1418 1415 1411 1408 1405 1402 1400 1398 1396 1394 1392 1390 1388 1385 1384 1382 1380 1378 1375 1373 1372 1372 1373 1374 1375 1376 1376 1377 1379 1381 1383 1386 1386 1386 1390
1498 1498 1497 1496 1495 1494 1493 1492 1490 1489 1487 1485 1484 1483 1482 1481 1480 1479 1478 1477 1476 1474 1473 1471 1469 1467 1465 1463 1462 1459 1457 1455 1453 1452 1451 1449 1447 1446 1444 1442 1440 1438 1437 1435 1432 1430 1428 1426 1424 1422 1420 1418 1414 1411 1408 1405 1403 1401 1399 1397 1395 1394 1392 1389 1388 1387 1386 1383 1380 1377 1376 1377 1378 1379 1379 1380 1380 1379 1381 1384 1387 1389 1389 1389 1392
1498 1497 1496 1496 1495 1494 1493 1492 1490 1488 1487 1485 1484 1483 1482 1481 1480 1479 1478 1477 1476 1474 1473 1471 1470 1468 1466 1464 1462 1460 1458 1456 1454 1453 1451 1450 1448 1446 1445 1443 1441 1440 1438 1436 1434 1432 1430 1428 1426 1425 1423 1420 1418 1415 1411 1408 1406 1404 1401 1399 1398 1398 1396 1393 1392 1391 1389 1387 1384 1382 1382 1382 1382 1383 1383 1384 1385 1384 1385 1387 1390 1393 1393 1393 1397
1497 1496 1496 1495 1494 1493 1492 1491 1489 1488 1486 1485 1484 1483 1482 1481 1480 1479 1478 1477 1475 1474 1473 1471 1469 1468 1466 1464 1463 1461 1459 1457 1455 1454 1452 1451 1449 1448 1446 1444 1442 1441 1439 1437 1435 1434 1432 1430 1428 1426 1425 1423 1420 1418 1414 1412 1410 1407 1404 1402 1401 1400 1398 1397 1396 1394 1393 1392 1390 1389 1389 1388 1388 1389 1389 1389 1390 1391 1391 1392 1393 1396 1397 1398 1402
1496 1496 1495 1495 1494 1493 1492 1490 1489 1487 1486 1485 1484 1483 1482 1481 1480 1479 1478 1476 1475 1474 1472 1471 1469 1467 1466 1464 1463 1461 1460 1458 1456 1455 1453 1452 1451 1449 1447 1445 1443 1441 1439 1438 1435 1434 1433 1431 1429 1428 1426 1424 1422 1420 1417 1415 1412 1410 1408 1406 1404 1402 1401 1400 1399 1398 1397 1397 1396 1396 1395 1394 1394 1395 1395 1395 1395 1397 1397 1397 1398 1400 1401 1403 1406
1496 1495 1495 1495 1494 1493 1491 1490 1489 1487 1486 1485 1484 1483 1482 1481 1480 1479 1478 1476 1475 1473 1472 1470 1468 1467 1465 1464 1463 1462 1460 1459 1457 1455 1454 1453 1451 1450 1448 1446 1444 1442 1440 1438 1436 1434 1433 1432 1430 1429 1428 1426 1424 1422 1420 1417 1415 1413 1410 1408 1407 1405 1404 1403 1402 1402 1401 1401 1401 1401 1401 1400 1400 1400 1401 1400 1401 1402 1403 1403 1404 1405 1407 1408 1410
1495 1495 1494 1494 1493 1492 1491 1490 1488 1487 1486 1485 1484 1483 1482 1481 1480 1478 1477 1476 1474 1473 1471 1469 1468 1466 1465 1464 1463 1462 1461 1460 1458 1457 1455 1454 1452 1451 1449 1447 1445 1443 1441 1439 1436 1434 1433 1432 1431 1430 1428 1427 1426 1424 1422 1420 1418 1416 1414 1412 1410 1409 1407 1406 1405 1405 1405 1404 1404 1404 1405 1405 1405 1405 1405 1405 1406 1407 1407 1408 1409 1410 1411 1412 1414
1494 1494 1493 1493 1492 1492 1491 1490 1488 1487 1486 1484 1483 1482 1482 1481 1480 1478 1477 1476 1474 1473 1471 1469 1468 1466 1465 1464 1463 1462 1462 1460 1459 1458 1457 1455 1454 1452 1450 1449 1447 1444 1442 1439 1437 1435 1433 1433 1432 1431 1430 1429 1428 1426 1425 1423 1422 1420 1418 1416 1414 1412 1411 1410 1409 1408 1408 1408 1408 1408 1408 1408 1408 1409 1409 1409 1410 1410 1411 1412 1412 1413 1414 1415 1416
1493 1493 1492 1492 1491 1491 1490 1489 1488 1487 1486 1484 1483 1482 1481 1480 1479 1478 1477 1476 1474 1473 1471 1470 1468 1467 1465 1464 1463 1463 1462 1461 1460 1459 1458 1456 1455 1453 1452 1450 1448 1446 1443 1440 1438 1436 1434 1433 1433 1432 1431 1430 1429 1428 1427 1426 1424 1423 1421 1419 1417 1415 1414 1413 1412 1412 1412 1411 1411 1411 1411 1412 1412 1412 1413 1413 1413 1414 1414 1415 1416 1416 1417 1418 1418
1493 1492 1492 1491 1491 1490 1489 1488 1487 1486 1485 1484 1483 1482 1481 1480 1479 1478 1477 1476 1475 1473 1472 1470 1468 1467 1466 1464 1464 1463 1462 1462 1461 1460 1459 1457 1456 1455 1453 1451 1450 1447 1444 1442 1439 1437 1435 1434 1434 1433 1432 1431 1431 1430 1429 1428 1427 1425 1424 1422 1420 1419 1418 1417 1416 1415 1415 1415 1414 1415 1415 1415 1415 1416 1416 1417 1417 1417 1418 1418 1418 1419 1419 1420 1421
1492 1492 1491 1490 1490 1489 1489 1488 1487 1486 1484 1484 1483 1482 1481 1480 1479 1478 1477 1476 1475 1474 1472 1470 1469 1467 1466 1465 1464 1464 1463 1462 1461 1460 1460 1458 1457 1456 1454 1453 1451 1449 1446 1443 1441 1439 1437 1436 1435 1434 1433 1433 1432 1431 1431 1430 1429 1428 1427 1425 1423 1422 1422 1421 1420 1419 1418 1418 1418 1418 1418 1418 1419 1419 1419 1419 1420 1420 1420 1420 1421 1421 1421 1422 1423
1491 1491 1490 1489 1489 1488 1488 1487 1486 1485 1484 1483 1482 1481 1481 1480 1479 1478 1478 1476 1475 1474 1472 1471 1469 1468 1467 1466 1465 1464 1463 1462 1462 1461 1460 1459 1458 1457 1455 1454 1452 1450 1447 1445 1442 1440 1438 1437 1436 1435 1435 1434 1433 1433 1432 1432 1431 1430 1429 1428 1426 1426 1425 1424 1423 1423 1422 1422 1422 1422 1422 1422 1421 1421 1422 1422 1422 1422 1422 1423 1423 1423 1423 1424 1425
1490 1490 1489 1488 1488 1487 1486 1486 1485 1484 1483 1482 1481 1480 1480 1479 1479 1478 1478 1477 1475 1474 1473 1471 1470 1468 1467 1466 1465 1465 1464 1463 1462 1461 1461 1460 1459 1458 1457 1455 1453 1451 1449 1446 1444 1441 1440 1438 1437 1437 1436 1436 1435 1434 1434 1433 1433 1432 1432 1431 1429 1429 1429 1428 1427 1427 1426 1426 1425 1425 1425 1425 1425 1424 1424 1424 1424 1425 1425 1424 1425 1425 1426 1426 1427
1489 1489 1488 1487 1486 1486 1485 1484 1484 1483 1482 1481 1480 1480 1479 1479 1478 1478 1477 1476 1475 1474 1473 1471 1470 1468 1467 1466 1466 1465 1464 1463 1463 1462 1461 1461 1459 1459 1458 1456 1454 1453 1450 1448 1445 1443 1441 1440 1439 1438 1437 1437 1436 1436 1436 1435 1435 1435 1434 1433 1432 1432 1431 1430 1430 1430 1430 1429 1428 1428 1429 1429 1428 1427 1427 1427 1427 1428 1427 1427 1427 1428 1428 1429 1430
1488 1487 1486 1485 1485 1484 1484 1483 1483 1482 1482 1481 1480 1479 1478 1478 1478 1477 1477 1476 1475 1474 1473 1471 1470 1468 1467 1467 1466 1465 1464 1464 1463 1463 1462 1461 1460 1460 1459 1457 1456 1454 1452 1450 1447 1445 1443 1442 1440 1439 1439 1438 1438 1438 1437 1437 1437 1437 1436 1436 1435 1435 1434 1433 1433 1433 1433 1433 1431 1430 1431 1433 1432 1430 1430 1430 1430 1430 1430 1431 1431 1432 1432 1433 1434
1486 1485 1485 1484 1483 1483 1482 1482 1481 1481 1481 1480 1479 1479 1478 1477 1477 1476 1476 1476 1475 1474 1473 1471 1470 1469 1468 1467 1466 1465 1465 1464 1463 1463 1462 1462 1461 1460 1459 1458 1457 1455 1453 1451 1449 1447 1445 1444 1442 1441 1440 1439 1439 1439 1439 1439 1439 1439 1438 1438 1438 1437 1436 1435 1435 1436 1436 1436 1434 1433 1434 1436 1435 1433 1433 1434 1434 1434 1435 1435 1436 1436 1436 1437 1438
1485 1484 1483 1483 1482 1482 1481 1481 1480 1480 1479 1479 1479 1478 1477 1477 1476 1476 1475 1475 1474 1473 1472 1471 1470 1469 1468 1467 1466 1466 1465 1464 1464 1463 1463 1462 1462 1461 1460 1459 1458 1457 1455 1453 1451 1449 1447 1445 1444 1443 1442 1441 1441 1440 1440 1440 1440 1440 1440 1440 1440 1439 1439 1438 1438 1439 1440 1439 1438 1437 1438 1439 1439 1438 1437 1438 1439 1439 1439 1440 1440 1440 1441 1441 1442
1483 1482 1482 1481 1481 1480 1480 1480 1479 1479 1478 1478 1478 1477 1477 1476 1476 1475 1475 1474 1474 1473 1472 1471 1470 1469 1468 1467 1466 1466 1465 1464 1464 1464 1463 1463 1462 1462 1461 1460 1459 1458 1456 1455 1453 1451 1449 1447 1446 1444 1444 1443 1442 1442 1442 1442 1442 1442 1442 1442 1442 1442 1441 1441 1442 1442 1442 1442 1441 1440 1441 1443 1443 1442 1441 1443 1443 1442 1443 1444 1444 1444 1444 1445 1445
1481 1481 1480 1480 1479 1479 1479 1478 1478 1478 1477 1477 1477 1476 1476 1475 1475 1474 1474 1474 1473 1473 1471 1470 1469 1468 1467 1467 1467 1466 1465 1465 1464 1464 1464 1463 1463 1463 1462 1461 1460 1459 1458 1456 1454 1452 1450 1449 1447 1446 1445 1445 1444 1444 1444 1444 1444 1444 1444 1444 1444 1444 1444 1444 1444 1444 1444 1445 1444 1443 1443 1445 1446 1445 1445 1446 1446 1446 1446 1447 1447 1448 1448 1448 1449
1480 1479 1479 1478 1478 1477 1477 1477 1476 1476 1476 1476 1475 1475 1475 1474 1474 1473 1473 1473 1472 1472 1471 1470 1469 1468 1467 1467 1467 1466 1466 1465 1465 1464 1464 1464 1464 1463 1463 1462 1461 1460 1459 1457 1456 1454 1452 1450 1449 1448 1447 1447 1446 1446 1446 1446 1445 1446 1446 1446 1446 1446 1446 1446 1446 1447 1447 1447 1447 1446 1445 1447 1448 1447 1448 1449 1449 1449 1449 1450 1450 1451 1451 1452 1452
1479 1478 1477 1477 1476 1476 1475 1475 1475 1474 1474 1474 1473 1473 1473 1473 1473 1473 1472 1472 1472 1471 1470 1469 1469 1468 1467 1467 1467 1466 1466 1465 1465 1464 1464 1464 1464 1464 1464 1463 1462 1461 1460 1459 1457 1456 1454 1452 1451 1450 1449 1449 1448 1448 1448 1447 1447 1447 1448 1448 1448 1448 1448 1448 1448 1449 1450 1450 1450 1449 1448 1449 1451 1450 1450 1452 1452 1452 1452 1453 1454 1454 1454 1455 1455
1477 1476 1476 1475 1475 1474 1474 1473 1473 1473 1473 1472 1472 1472 1472 1472 1472 1472 1471 1471 1471 1471 1470 1469 1468 1468 1467 1467 1467 1466 1466 1465 1465 1465 1465 1465 1465 1464 1464 1464 1463 1462 1461 1460 1459 1457 1456 1454 1453 1452 1451 1450 1450 1450 1449 1449 1449 1449 1449 1450 1450 1450 1450 1450 1450 1451 1452 1452 1452 1452 1451 1452 1453 1453 1453 1454 1454 1455 1456 1456 1457 1457 1457 1457 1458
1475 1475 1474 1474 1473 1473 1473 1472 1472 1472 1471 1471 1470 1470 1470 1470 1470 1470 1470 1470 1470 1470 1469 1469 1468 1468 1467 1467 1467 1466 1466 1465 1465 1465 1465 1465 1465 1465 1464 1464 1464 1463 1462 1461 1460 1459 1457 1456 1454 1453 1453 1452 1451 1451 1451 1451 1451 1451 1451 1451 1452 1452 1453 1452 1453 1453 1453 1454 1454 1454 1454 1455 1456 1456 1456 1456 1456 1457 1459 1459 1460 1460 1460 1460 1460